Voltar ao catálogo

STARLINK-34049

AtivoComunicaçõesVLEO
NORAD 64042·PAYLOAD·🇺🇸 United States

Lançado May 16, 2025 de Vandenberg Space Force Base

Loading…

Próximas Passagens (próximas 24 horas)

TLE

AtualizadoSource: CelesTrak SupGP

Época: Sep 14, 2026, 14:54 UTC

1 64042C 25102W   26257.62131944 -.00010279  00000+0 -35765-3 0  2574
2 64042  70.0012 356.4769 0003342 275.3435  55.1910 15.29577394    13

Acompanhe STARLINK-34049 em tempo real com AllMySat

Download on the App Store